TimeEST,TemperatureF,Dew PointF,Humidity,Sea Level PressureIn,VisibilityMPH,Wind Direction,Wind SpeedMPH,Gust SpeedMPH,PrecipitationIn,Events,Conditions,WindDirDegrees,DateUTC
12:53 AM,37.0,27.0,67,30.21,10.0,South,3.5,-,N/A,,Overcast,190,2013-01-06 05:53:00
1:53 AM,37.0,27.0,67,30.21,10.0,Calm,Calm,-,N/A,,Overcast,0,2013-01-06 06:53:00
2:53 AM,37.0,27.0,67,30.21,10.0,SSW,3.5,-,N/A,,Overcast,200,2013-01-06 07:53:00
3:53 AM,37.0,27.0,67,30.19,10.0,South,4.6,-,N/A,,Overcast,190,2013-01-06 08:53:00
4:53 AM,37.9,27.0,65,30.18,10.0,Calm,Calm,-,N/A,,Overcast,0,2013-01-06 09:53:00
5:53 AM,37.0,28.0,70,30.17,10.0,Calm,Calm,-,N/A,,Overcast,0,2013-01-06 10:53:00
6:53 AM,37.9,27.0,65,30.18,10.0,SSW,3.5,-,N/A,,Overcast,210,2013-01-06 11:53:00
7:53 AM,37.9,28.0,68,30.19,10.0,SSW,4.6,-,N/A,,Overcast,210,2013-01-06 12:53:00
8:53 AM,37.9,28.9,70,30.19,10.0,SSW,4.6,-,N/A,,Overcast,210,2013-01-06 13:53:00
9:53 AM,39.0,30.0,70,30.19,10.0,SW,10.4,-,N/A,,Overcast,220,2013-01-06 14:53:00
10:53 AM,41.0,30.9,67,30.19,10.0,WSW,10.4,17.3,N/A,,Overcast,240,2013-01-06 15:53:00
11:53 AM,41.0,30.0,65,30.17,10.0,WSW,11.5,-,N/A,,Overcast,250,2013-01-06 16:53:00
12:53 PM,42.1,30.0,62,30.14,10.0,WSW,8.1,-,N/A,,Overcast,240,2013-01-06 17:53:00
1:16 PM,42.8,30.2,61,30.11,10.0,SW,9.2,-,N/A,,Overcast,220,2013-01-06 18:16:00
1:42 PM,44.6,30.2,57,30.09,10.0,SW,6.9,-,N/A,,Overcast,230,2013-01-06 18:42:00
1:53 PM,44.1,28.9,55,30.10,10.0,SW,12.7,20.7,N/A,,Overcast,220,2013-01-06 18:53:00
2:53 PM,44.1,28.9,55,30.11,10.0,West,11.5,-,N/A,,Overcast,260,2013-01-06 19:53:00
3:53 PM,44.1,30.0,58,30.13,10.0,West,9.2,-,N/A,,Overcast,260,2013-01-06 20:53:00
4:53 PM,43.0,30.0,60,30.15,10.0,WSW,8.1,-,N/A,,Overcast,250,2013-01-06 21:53:00
5:53 PM,41.0,30.0,65,30.18,10.0,WNW,13.8,21.9,N/A,,Overcast,290,2013-01-06 22:53:00
6:25 PM,39.2,30.2,70,30.19,10.0,WNW,13.8,23.0,N/A,,Overcast,300,2013-01-06 23:25:00
6:41 PM,37.4,28.4,70,30.20,10.0,WNW,12.7,24.2,N/A,,Overcast,290,2013-01-06 23:41:00
6:53 PM,37.9,28.0,68,30.23,10.0,WNW,11.5,-,N/A,,Overcast,290,2013-01-06 23:53:00
7:18 PM,37.4,28.4,70,30.23,10.0,NW,9.2,-,N/A,,Overcast,310,2013-01-07 00:18:00
7:42 PM,37.4,26.6,65,30.24,10.0,WNW,12.7,-,N/A,,Overcast,300,2013-01-07 00:42:00
7:53 PM,37.0,27.0,67,30.27,10.0,NW,12.7,19.6,N/A,,Overcast,320,2013-01-07 00:53:00
8:42 PM,35.6,24.8,65,30.27,10.0,WNW,12.7,-,N/A,,Overcast,300,2013-01-07 01:42:00
8:53 PM,35.1,25.0,67,30.30,10.0,NW,8.1,-,N/A,,Overcast,320,2013-01-07 01:53:00
9:53 PM,34.0,24.1,67,30.32,10.0,NW,5.8,-,N/A,,Overcast,310,2013-01-07 02:53:00
10:53 PM,33.1,24.1,70,30.34,10.0,NNW,8.1,-,N/A,,Overcast,340,2013-01-07 03:53:00
11:53 PM,32.0,21.9,66,30.36,10.0,NW,6.9,-,N/A,,Overcast,310,2013-01-07 04:53:00